Starlink 30978

operational
NORAD ID: 58490 Int'l Des: 2023-186 Owner: SPXS Country: US Constellation: starlink
LEOCIRCULAR

About Starlink 30978

Description loading...

Live Position

Loading 3D Globe...

Upcoming Passes

Altitude History

Altitude vs Time

uPlot chart will show altitude changes over time

Two-Line Element Set

1 58490U 23186T 25353.71888564 .00000221 00000-0 31406-4 0 9994
2 58490 43.0027 141.8307 0001200 279.1984 80.8723 15.02535406113814
Epoch: Dec 19, 2025 • Age: 8 hours

Current Status

Altitude 562.7 km
Velocity 7.58 km/s
Sub-Earth Point -19.00°S, 13.05°E
Launch Date Dec 3, 2023
Age 2 years
Type internet

Technical Details

Classification Payload
Mass 730.00 kg
Dry Mass 700.00 kg
Total Mass 730.00 kg
Length 0.30 m
Diameter 4.10 m
Span 29.00 m
Shape Box + pan
Manufacturer SPXS
Bus Type Starlink V2M
Phase Status In Orbit
Owner/State SPXS/US

Large Constellations

Loading constellations...